Regional Weather Roundup
Issued by NWS

Home | Current Version | Previous Version | Graphics & Text | Print | Product List | Glossary On
Versions: 1 2 3 4 5 6 7 8 9 10 11 12 13 14 15 16 17 18 19 20 21 22 23 24 25 26 27 28 29 30 31 32 33 34 35 36 37 38 39 40 41 42 43 44 45 46 47 48 49 50
000
ASUS45 KABQ 251301
RWRNM
NEW MEXICO REGIONAL WEATHER ROUNDUP
NATIONAL WEATHER SERVICE ALBUQUERQUE NM
700 AM MDT MON SEP 25 2017

NOTE: "FAIR" MEANS FEW OR NO CLOUDS BELOW 12,000 FEET AGL WITH NO
       SIGNIFICANT WEATHER OR OBSTRUCTIONS TO VISION.

      THIS PRODUCT IS RELEASED AS TWO VERSIONS.  ONE VERSION NEAR
      THE TOP OF THE HOUR CONTAINING PRELIMINARY DATA FROM ALBUQUERQUE
      AND OTHER STATIONS.  A FINAL VERSION WITH ADDITIONAL DATA IS
      ISSUED ABOUT 10 MINUTES AFTER THE HOUR.

NMZ501-503-504-510>518-251400-
NORTHWEST PLATEAU/NORTHCENTRAL MOUNTAINS

CITY           SKY/WX    TMP DP  RH WIND       PRES   REMARKS
FARMINGTON     FAIR      29  16  58 CALM      30.04R
LOS ALAMOS     MOCLDY    47  22  38 CALM      30.06R
SANTA FE       FAIR      46  27  47 N15       30.00S
TAOS           MOCLDY    37  30  75 CALM      30.09R
ANGEL FIRE     MOCLDY    26  25  94 CALM      30.13R

$$
NMZ402-403-502-505>509-251400-
WESTCENTRAL MOUNTAINS/SOUTHWEST MOUNTAINS

CITY           SKY/WX    TMP DP  RH WIND       PRES   REMARKS
GALLUP         FAIR      27  10  49 CALM      30.07R
GRANTS         FAIR      32  13  45 NW6       30.07S WCI  27
SILVER CITY    FAIR      46  31  56 N13       29.95R

$$
NMZ407-409-411-412-251400-
SOUTHERN DESERTS

CITY           SKY/WX    TMP DP  RH WIND       PRES   REMARKS
DEMING         FAIR      48  30  49 W9        29.90R
LAS CRUCES     FAIR      59  28  30 N7        29.90S
HOLLOMAN AFB   FAIR      62  47  58 NW8       29.88R
ALAMOGORDO     CLOUDY    64  46  52 CALM      29.87R
T OR C         CLOUDY    58  22  24 N6        29.93R

$$
NMZ519>523-251400-
CENTRAL VALLEYS/CENTRAL HIGHLANDS

CITY           SKY/WX    TMP DP  RH WIND       PRES   REMARKS
ALBUQUERQUE    FAIR      52  22  30 NE6       29.99S
DOUBLE EAGLE   PTCLDY    45  21  39 N7        30.02R
MORIARTY ARPT  CLOUDY    44  35  70 CALM      30.02S
CLINES CORNERS MOCLDY    47  26  44 NW5       30.03S
BELEN          FAIR      47  15  27 N6        29.99R
SOCORRO        FAIR      52  20  28 N5        29.97R

$$
NMZ524>526-539-540-251400-
SOUTHCENTRAL MOUNTAINS

CITY           SKY/WX    TMP DP  RH WIND       PRES   REMARKS
RUIDOSO        NOT AVBL

$$
NMZ527>531-251400-
NORTHEAST HIGHLANDS/NORTHEAST PLAINS

CITY           SKY/WX    TMP DP  RH WIND       PRES   REMARKS
LAS VEGAS      CLOUDY    42  37  82 NE6       30.03R
RATON          NOT AVBL
CLAYTON        CLOUDY    54  54 100 N13       30.00R

$$
NMZ532>537-251400-
EASTCENTRAL PLAINS

CITY           SKY/WX    TMP DP  RH WIND       PRES   REMARKS
SANTA ROSA     CLOUDY    63  61  94 CALM      29.91S
TUCUMCARI      FAIR      61  59  93 N8        29.89R
CANNON AFB     NOT AVBL
CLOVIS AIRPORT CLOUDY    66  64  93 SE9       29.93R

$$
NMZ028-029-538-251400-
SOUTHEAST PLAINS

CITY           SKY/WX    TMP DP  RH WIND       PRES   REMARKS
ROSWELL        RAIN      66  55  67 SE29G49   29.78F
ARTESIA        MOCLDY    64  61  88 E13G21    29.83F
CARLSBAD       TSTM      59  59 100 W8        29.89R FOG
HOBBS          CLOUDY    68  66  94 S12       29.89R


$$



USA.gov is the U.S. government's official web portal to all federal, state and local government web resources and services.